South Bend, IN

4:20 AM EDT on July 23, 2017 (GMT -0400)
South Bend Regional

Weather History for KSBN - May, 2013

Change the Weather History Date:

Sunday, May 26, 2013

  Actual Average Record
Temperature  
Mean Temperature 56 °F 62 °F  
Max Temperature 71 °F 73 °F 91 °F (1914)
Min Temperature 41 °F 52 °F 33 °F (1961)
Degree Days  
Heating Degree Days 9 5  
Month to date heating degree days 140 203  
Since 1 July heating degree days 6095 6234  
Cooling Degree Days 0 2  
Month to date cooling degree days 61 34  
Year to date cooling degree days 66 44  
Growing Degree Days 6 (Base 50)    
Moisture  
Dew Point 40 °F    
Average Humidity 60    
Maximum Humidity 89    
Minimum Humidity 31    
Precipitation  
Precipitation 0.00 in 0.12 in 2.13 in (1913)
Month to date precipitation 1.59 3.16  
Year to date precipitation 15.64 13.05  
Snow  
Snow 0.00 in 0.00 in T in (1961)
Month to date snowfall 0.0 0.0  
Since 1 July snowfall 59.9 66.6  
Snow Depth 0.00 in    
Sea Level Pressure  
Sea Level Pressure 30.27 in    
Wind  
Wind Speed 7 mph (SE)    
Max Wind Speed 16 mph    
Max Gust Speed 20 mph    
Visibility 10 miles    
Events      
T = Trace of Precipitation, MM = Missing Value Source: NWS Daily Summary

Daily Weather History Graph

Daily Weather History Graph

Search for Another Location

Airport or City:

Trip Planner

Search our weather history database for the weather conditions in past years. The results will help you decide how hot, cold, wet, or windy it might be!

Date:

Astronomy

May. 26, 2013 Rise Set
Actual Time 6:16 AM EDT 9:08 PM EDT
Civil Twilight 5:43 AM EDT 9:41 PM EDT
Nautical Twilight 5:01 AM EDT 10:23 PM EDT
Astronomical Twilight 4:13 AM EDT 11:11 PM EDT
Moon 10:55 PM EDT (5/26) 7:45 AM EDT (5/26)
Length of Visible Light 15h 58m
Length of Day
14h 52m
Waning Gibbous, 97% of the Moon is Illuminated
May 26
Waning Gibbous
May 31
Last Quarter
Jun 8
New
Jun 16
First Quarter
Jun 23
Full

Hourly Weather History & Observations

Time (EDT) Temp. Windchill Dew Point Humidity Pressure Visibility Wind Dir Wind Speed Gust Speed Precip Events Conditions
12:54 AM 45.0 °F 43.5 °F 39.0 °F 80% 30.32 in 10.0 mi WSW 3.5 mph - N/A   Clear
1:54 AM 44.1 °F - 37.9 °F 79% 30.31 in 10.0 mi Calm Calm - N/A   Clear
2:54 AM 43.0 °F - 39.0 °F 86% 30.30 in 10.0 mi Calm Calm - N/A   Clear
3:54 AM 42.1 °F - 39.0 °F 89% 30.29 in 10.0 mi Calm Calm - N/A   Clear
4:54 AM 43.0 °F - 37.9 °F 82% 30.28 in 10.0 mi Calm Calm - N/A   Clear
5:54 AM 45.0 °F 42.6 °F 39.0 °F 80% 30.30 in 10.0 mi East 4.6 mph - N/A   Clear
6:54 AM 46.0 °F - 39.0 °F 76% 30.31 in 10.0 mi Calm Calm - N/A   Clear
7:54 AM 51.1 °F - 39.9 °F 66% 30.31 in 10.0 mi ESE 8.1 mph - N/A   Clear
8:54 AM 55.9 °F - 37.9 °F 51% 30.32 in 10.0 mi ESE 11.5 mph - N/A   Clear
9:54 AM 60.1 °F - 39.0 °F 46% 30.32 in 10.0 mi ESE 12.7 mph - N/A   Clear
10:54 AM 63.0 °F - 39.9 °F 43% 30.31 in 10.0 mi SE 11.5 mph - N/A   Clear
11:54 AM 64.9 °F - 39.0 °F 39% 30.31 in 10.0 mi ESE 13.8 mph - N/A   Clear
12:54 PM 66.9 °F - 39.9 °F 37% 30.31 in 10.0 mi SE 12.7 mph 19.6 mph N/A   Clear
1:54 PM 69.1 °F - 39.9 °F 35% 30.29 in 10.0 mi SSE 11.5 mph 18.4 mph N/A   Clear
2:54 PM 69.1 °F - 39.9 °F 35% 30.27 in 10.0 mi SSE 9.2 mph - N/A   Clear
3:54 PM 68.0 °F - 39.0 °F 35% 30.25 in 10.0 mi SE 10.4 mph - N/A   Clear
4:54 PM 70.0 °F - 39.9 °F 33% 30.24 in 10.0 mi SSE 8.1 mph - N/A   Scattered Clouds
5:54 PM 70.0 °F - 39.0 °F 32% 30.22 in 10.0 mi SE 10.4 mph - N/A   Mostly Cloudy
6:54 PM 69.1 °F - 37.9 °F 32% 30.19 in 10.0 mi ESE 15.0 mph 18.4 mph N/A   Clear
7:54 PM 68.0 °F - 37.0 °F 32% 30.19 in 10.0 mi ESE 8.1 mph - N/A   Partly Cloudy
8:54 PM 68.0 °F - 37.0 °F 32% 30.19 in 10.0 mi SE 8.1 mph - N/A   Overcast
9:54 PM 66.9 °F - 37.9 °F 34% 30.18 in 10.0 mi SSE 6.9 mph - N/A   Overcast
10:54 PM 62.1 °F - 48.9 °F 62% 30.20 in 10.0 mi SW 6.9 mph - N/A   Overcast
11:54 PM 61.0 °F - 50.0 °F 67% 30.20 in 10.0 mi Calm Calm - N/A   Overcast